Weather History for KBBB - October, 2012

Change the Weather History Date:

Friday, October 12, 2012

  Actual Average Record
Temperature  
Mean Temperature 34 °F -  
Max Temperature 53 °F 59 °F 84 °F (1956)
Min Temperature 14 °F 37 °F 14 °F (2012)
Degree Days  
Heating Degree Days 32    
Moisture  
Dew Point 16 °F    
Average Humidity 56    
Maximum Humidity 100    
Minimum Humidity 21    
Precipitation  
Precipitation 0.00 in - - ()
Sea Level Pressure  
Sea Level Pressure 30.24 in    
Wind  
Wind Speed 6 mph (South)    
Max Wind Speed 21 mph    
Max Gust Speed 32 mph    
Visibility 10 miles    
Events      
Averages and records for this station are not official NWS values.
T = Trace of Precipitation, MM = Missing Value Source: NWS Daily Summary

Daily Weather History Graph

Daily Weather History Graph

Search for Another Location

Airport or City:

Trip Planner

Search our weather history database for the weather conditions in past years. The results will help you decide how hot, cold, wet, or windy it might be!

Date:

Astronomy

Oct. 12, 2012 Rise Set
Actual Time 7:35 AM CDT 6:41 PM CDT
Civil Twilight 7:05 AM CDT 7:11 PM CDT
Nautical Twilight 6:31 AM CDT 7:45 PM CDT
Astronomical Twilight 5:57 AM CDT 8:19 PM CDT
Moon 4:11 AM CDT (10/12) 4:58 PM CDT (10/12)
Length of Visible Light 12h 05m
Length of Day
11h 06m
Waning Crescent, 10% of the Moon is Illuminated
Oct 12
Waning Crescent
Oct 15
New
Oct 21
First Quarter
Oct 29
Full
Nov 6
Last Quarter

Hourly Weather History & Observations

Time (CDT) Temp. Windchill Dew Point Humidity Pressure Visibility Wind Dir Wind Speed Gust Speed Precip Events Conditions
12:01 AM 19.4 °F - 14.0 °F 80% 30.41 in 10.0 mi West 2.3 mph - N/A   Clear
12:21 AM 17.6 °F - 12.2 °F 79% 30.41 in 10.0 mi West 2.3 mph - N/A   Clear
12:41 AM 19.4 °F - 15.8 °F 86% 30.41 in 10.0 mi Calm Calm - N/A   Clear
1:01 AM 19.4 °F - 15.8 °F 86% 30.41 in 10.0 mi Calm Calm - N/A   Clear
1:21 AM 17.6 °F - 15.8 °F 93% 30.41 in 10.0 mi Calm Calm - N/A   Clear
1:41 AM 19.4 °F - 15.8 °F 86% 30.41 in 10.0 mi East 1.2 mph - N/A   Clear
3:01 AM 17.6 °F - 12.2 °F 79% 30.41 in 10.0 mi South 1.2 mph - N/A   Clear
3:21 AM 14.0 °F - 10.4 °F 86% 30.41 in 10.0 mi Calm Calm - N/A   Clear
3:41 AM 15.8 °F - 14.0 °F 93% 30.41 in 10.0 mi Calm Calm - N/A   Clear
4:01 AM 17.6 °F - 12.2 °F 79% 30.41 in 10.0 mi SW 2.3 mph - N/A   Clear
4:21 AM 15.8 °F - 12.2 °F 86% 30.42 in 10.0 mi SSW 2.3 mph - N/A   Clear
4:41 AM 17.6 °F - 14.0 °F 86% 30.41 in 10.0 mi South 1.2 mph - N/A   Clear
5:01 AM 17.6 °F - 15.8 °F 93% 30.42 in 10.0 mi Calm Calm - N/A   Clear
5:21 AM 15.8 °F - 14.0 °F 93% 30.41 in 10.0 mi Calm Calm - N/A   Clear
5:41 AM 15.8 °F - 15.8 °F 100% 30.41 in 10.0 mi SSE 1.2 mph - N/A   Clear
6:01 AM 14.0 °F 6.5 °F 12.2 °F 93% 30.40 in 10.0 mi East 4.6 mph - N/A   Clear
6:41 AM 14.0 °F - 12.2 °F 93% 30.39 in 10.0 mi SE 1.2 mph - N/A   Clear
7:01 AM 15.8 °F - 12.2 °F 86% 30.39 in 10.0 mi SE 1.2 mph - N/A   Clear
7:21 AM 15.8 °F - 14.0 °F 93% 30.39 in 10.0 mi ESE 2.3 mph - N/A   Clear
7:41 AM 15.8 °F 8.6 °F 12.2 °F 86% 30.38 in 10.0 mi ESE 4.6 mph - N/A   Clear
8:01 AM 15.8 °F 10.2 °F 12.2 °F 86% 30.38 in 10.0 mi ESE 3.5 mph - N/A   Clear
8:21 AM 17.6 °F - 15.8 °F 93% 30.38 in 10.0 mi SE 1.2 mph - N/A   Clear
8:41 AM 21.2 °F 14.9 °F 19.4 °F 93% 30.38 in 10.0 mi South 4.6 mph - N/A   Clear
9:01 AM 26.6 °F 20.0 °F 21.2 °F 80% 30.37 in 10.0 mi South 5.8 mph - N/A   Clear
9:21 AM 30.2 °F 21.9 °F 23.0 °F 75% 30.36 in 10.0 mi SSE 9.2 mph - N/A   Clear
9:41 AM 33.8 °F 26.4 °F 21.2 °F 60% 30.35 in 10.0 mi SSE 9.2 mph - N/A   Clear
10:01 AM 37.4 °F 29.8 °F 21.2 °F 52% 30.35 in 10.0 mi SSE 11.5 mph - N/A   Clear
10:21 AM 39.2 °F 31.6 °F 21.2 °F 49% 30.35 in 10.0 mi South 12.7 mph 17.3 mph N/A   Clear
10:41 AM 42.8 °F 35.4 °F 21.2 °F 42% 30.35 in 10.0 mi South 15.0 mph 18.4 mph N/A   Clear
11:01 AM 42.8 °F 35.1 °F 21.2 °F 42% 30.34 in 10.0 mi South 16.1 mph 21.9 mph N/A   Clear
11:21 AM 44.6 °F 36.9 °F 21.2 °F 39% 30.33 in 10.0 mi South 18.4 mph - N/A   Clear
11:41 AM 44.6 °F 36.9 °F 21.2 °F 39% 30.32 in 10.0 mi South 18.4 mph 24.2 mph N/A   Clear
12:41 PM 48.2 °F - 19.4 °F 32% 30.29 in 10.0 mi South 17.3 mph 21.9 mph N/A   Clear
1:41 PM - - - N/A% 30.25 in 10.0 mi South 18.4 mph 23.0 mph N/A   Clear
2:41 PM 53.6 °F - 17.6 °F 24% 30.20 in 10.0 mi SSW 19.6 mph 29.9 mph N/A   Clear
3:21 PM 53.6 °F - 15.8 °F 22% 30.17 in 10.0 mi South 19.6 mph 32.2 mph N/A   Clear
4:21 PM 53.6 °F - 14.0 °F 21% 30.13 in 10.0 mi South 20.7 mph 25.3 mph N/A   Clear
5:41 PM 53.6 °F - 14.0 °F 21% 30.08 in 10.0 mi South 20.7 mph 28.8 mph N/A   Clear
6:01 PM 53.6 °F - 15.8 °F 22% 30.06 in 10.0 mi South 18.4 mph 25.3 mph N/A   Scattered Clouds
6:21 PM 51.8 °F - 15.8 °F 24% 30.05 in 10.0 mi South 13.8 mph - N/A   Scattered Clouds
6:41 PM 51.8 °F - 15.8 °F 24% 30.05 in 10.0 mi South 13.8 mph 20.7 mph N/A   Mostly Cloudy
7:01 PM 51.8 °F - 15.8 °F 24% 30.04 in 10.0 mi South 13.8 mph 19.6 mph N/A   Overcast
7:21 PM 51.8 °F - 15.8 °F 24% 30.03 in 10.0 mi South 12.7 mph - N/A   Overcast
7:41 PM 51.8 °F - 15.8 °F 24% 30.02 in 10.0 mi South 15.0 mph 20.7 mph N/A   Overcast
8:01 PM 51.8 °F - 15.8 °F 24% 30.01 in 10.0 mi South 15.0 mph 18.4 mph N/A   Overcast
8:21 PM 51.8 °F - 15.8 °F 24% 29.99 in 10.0 mi South 10.4 mph - N/A   Overcast
8:44 PM 51.8 °F - 15.8 °F 24% 29.98 in 10.0 mi South 12.7 mph 19.6 mph N/A   Overcast
9:01 PM 51.8 °F - 15.8 °F 24% 29.97 in 10.0 mi South 16.1 mph 24.2 mph N/A   Overcast
9:21 PM 51.8 °F - 17.6 °F 26% 29.97 in 10.0 mi South 18.4 mph 24.2 mph N/A   Overcast
9:41 PM 51.8 °F - 17.6 °F 26% 29.96 in 10.0 mi South 17.3 mph 23.0 mph N/A   Overcast
10:01 PM 51.8 °F - 17.6 °F 26% 29.95 in 10.0 mi South 12.7 mph 23.0 mph N/A   Overcast
10:21 PM 51.8 °F - 17.6 °F 26% 29.94 in 10.0 mi South 13.8 mph 23.0 mph N/A   Overcast
10:41 PM 51.8 °F - 17.6 °F 26% 29.94 in 10.0 mi South 13.8 mph 19.6 mph N/A   Overcast
11:21 PM 51.8 °F - 17.6 °F 26% 29.92 in 10.0 mi South 15.0 mph 20.7 mph N/A   Overcast
11:42 PM 51.8 °F - 17.6 °F 26% 29.91 in 10.0 mi South 13.8 mph 21.9 mph N/A   Overcast